Weather History for Lee's Summit, MO

Change the Weather History Date:

Sunday, March 2, 2014

  Actual Average (KMKC) Record (KMKC)
Temperature  
Mean Temperature 4 °F -  
Max Temperature 8 °F 45 °F 73 °F (2008)
Min Temperature 1 °F 27 °F 1 °F (2014)
Degree Days  
Heating Degree Days 60    
Moisture  
Dew Point -4 °F    
Average Humidity 70    
Maximum Humidity 80    
Minimum Humidity 50    
Precipitation  
Precipitation 0.14 in - - ()
Sea Level Pressure  
Sea Level Pressure 30.45 in    
Wind  
Wind Speed 17 mph (North)    
Max Wind Speed 22 mph    
Max Gust Speed 30 mph    
Visibility 5 miles    
Events Snow    
Averages and records for this station are not official NWS values.
T = Trace of Precipitation, MM = Missing Value Source: NWS Daily Summary

Daily Weather History Graph

Daily Weather History Graph

Search for Another Location

Airport:

Trip Planner

Search our weather history database for the weather conditions in past years. The results will help you decide how hot, cold, wet, or windy it might be!

Date:

Astronomy

Mar. 02, 2014 Rise Set
Actual Time 6:48 AM CST 6:11 PM CST
Civil Twilight 6:21 AM CST 6:38 PM CST
Nautical Twilight 5:50 AM CST 7:08 PM CST
Astronomical Twilight 5:19 AM CST 7:39 PM CST
Moon 7:21 AM CST (3/2) 8:06 PM CST (3/2)
Length of Visible Light 12h 16m
Length of Day
11h 22m
Waxing Crescent, 3% of the Moon is Illuminated
Mar 2
Waxing Crescent
Mar 8
First Quarter
Mar 16
Full
Mar 23
Last Quarter
Mar 30
New

Hourly Weather History & Observations

Time (CST) Temp. Windchill Dew Point Humidity Pressure Visibility Wind Dir Wind Speed Gust Speed Precip Events Conditions
12:30 AM 8.1 °F -10.7 °F 3.0 °F 80% 30.34 in 1.8 mi North 18.4 mph 24.2 mph 0.00 in Snow Light Snow
12:39 AM 7.0 °F -12.6 °F 1.9 °F 80% 30.36 in 3.0 mi North 19.6 mph - 0.00 in Snow Light Snow
12:53 AM 7.0 °F -11.0 °F 1.9 °F 80% 30.41 in 3.0 mi NNE 16.1 mph - 0.01 in Snow Light Snow
1:01 AM 7.0 °F -10.4 °F 1.9 °F 80% 30.36 in 2.0 mi North 15.0 mph - 0.00 in Snow Light Snow
1:09 AM 7.0 °F -11.6 °F 1.9 °F 80% 30.37 in 1.5 mi North 17.3 mph 23.0 mph 0.01 in Snow Light Snow
1:19 AM 7.0 °F -11.0 °F 1.9 °F 80% 30.36 in 2.0 mi North 16.1 mph 25.3 mph 0.02 in Snow Light Snow
1:40 AM 6.1 °F -13.3 °F 1.0 °F 80% 30.35 in 2.0 mi North 18.4 mph 26.5 mph 0.04 in Snow Light Snow
1:50 AM 6.8 °F -11.8 °F 1.4 °F 79% 30.34 in 1.8 mi NNE 17.3 mph - 0.06 in Snow Light Snow
1:53 AM 6.1 °F -14.8 °F 1.0 °F 80% 30.40 in 1.5 mi NNE 21.9 mph 27.6 mph 0.06 in Snow Light Snow
2:17 AM 5.0 °F -13.6 °F -0.0 °F 80% 30.34 in 1.5 mi NNE 16.1 mph - 0.02 in Snow Light Snow
2:25 AM 5.0 °F -15.7 °F -0.0 °F 80% 30.34 in 1.5 mi NNE 20.7 mph 25.3 mph 0.02 in Snow Light Snow
2:39 AM 5.0 °F -14.7 °F -0.9 °F 76% 30.37 in 2.0 mi North 18.4 mph 29.9 mph 0.02 in Snow Light Snow
2:53 AM 3.9 °F -15.0 °F -0.9 °F 80% 30.40 in 1.5 mi NNE 16.1 mph 24.2 mph 0.03 in Snow Light Snow
3:01 AM 3.9 °F -16.1 °F -0.9 °F 80% 30.35 in 2.0 mi North 18.4 mph 24.2 mph 0.01 in Snow Light Snow
3:17 AM 3.9 °F -16.6 °F -2.0 °F 76% 30.35 in 4.0 mi NNE 19.6 mph - 0.01 in Snow Light Snow
3:53 AM 3.9 °F -13.7 °F -2.0 °F 76% 30.45 in 5.0 mi North 13.8 mph - 0.01 in   Haze
4:53 AM 3.9 °F -16.6 °F -2.9 °F 73% 30.47 in 6.0 mi North 19.6 mph 25.3 mph 0.01 in Snow Light Snow
5:14 AM 3.0 °F -17.8 °F -2.9 °F 76% 30.40 in 6.0 mi North 19.6 mph 26.5 mph 0.00 in Snow Light Snow
5:31 AM 3.0 °F -15.5 °F -2.9 °F 76% 30.40 in 5.0 mi NNE 15.0 mph - 0.00 in Snow Light Snow
5:53 AM 3.0 °F -18.8 °F -2.9 °F 76% 30.47 in 9.0 mi North 21.9 mph 26.5 mph 0.00 in   Overcast
6:53 AM 3.0 °F -16.1 °F -4.0 °F 73% 30.50 in 10.0 mi NNE 16.1 mph - 0.00 in   Overcast
7:53 AM 3.0 °F -17.3 °F -5.1 °F 69% 30.52 in 10.0 mi NNE 18.4 mph 27.6 mph 0.00 in   Overcast
8:53 AM 3.9 °F -13.7 °F -6.0 °F 64% 30.55 in 10.0 mi North 13.8 mph - 0.00 in   Overcast
9:53 AM 3.0 °F -14.8 °F -7.1 °F 63% 30.54 in 10.0 mi NNE 13.8 mph - 0.01 in   Overcast
10:53 AM 3.0 °F -17.8 °F -7.1 °F 63% 30.53 in 5.0 mi North 19.6 mph - 0.00 in Snow Blowing Snow
11:53 AM 1.9 °F -16.9 °F -5.1 °F 72% 30.55 in 1.8 mi North 15.0 mph - 0.00 in Snow Light Snow
12:08 PM 1.9 °F -18.1 °F -5.1 °F 72% 30.47 in 0.8 mi North 17.3 mph - 0.00 in Snow Light Snow
12:53 PM 1.9 °F -17.5 °F -5.1 °F 72% 30.55 in 1.0 mi North 16.1 mph - 0.00 in Snow Light Snow
1:45 PM 1.0 °F -19.3 °F -6.0 °F 72% 30.46 in 0.8 mi North 17.3 mph - 0.01 in Snow Light Snow
1:53 PM 1.0 °F -16.6 °F -5.1 °F 75% 30.54 in 0.8 mi North 12.7 mph - 0.01 in Snow Light Snow
2:00 PM 1.9 °F -16.2 °F -5.1 °F 72% 30.46 in 0.5 mi North 13.8 mph - 0.00 in Snow Snow
2:21 PM 1.9 °F -18.7 °F -5.1 °F 72% 30.46 in 2.0 mi North 18.4 mph - 0.00 in Snow Light Snow
2:30 PM 1.9 °F -18.1 °F -5.1 °F 72% 30.46 in 3.0 mi North 17.3 mph - 0.00 in Snow Light Snow
2:38 PM 3.0 °F -16.7 °F -5.1 °F 69% 30.45 in 5.0 mi North 17.3 mph - 0.00 in Snow Light Snow
2:53 PM 3.0 °F -17.3 °F -5.1 °F 69% 30.52 in 5.0 mi North 18.4 mph - 0.00 in   Haze
3:53 PM 3.0 °F -16.7 °F -9.0 °F 57% 30.50 in 10.0 mi North 17.3 mph - N/A   Overcast
4:53 PM 3.9 °F -15.6 °F -11.0 °F 50% 30.51 in 10.0 mi North 17.3 mph - N/A   Overcast
5:53 PM 3.0 °F -16.7 °F -11.0 °F 52% 30.51 in 10.0 mi North 17.3 mph - N/A   Mostly Cloudy
6:53 PM 1.9 °F -16.2 °F -11.9 °F 52% 30.51 in 10.0 mi NNE 13.8 mph - N/A   Clear
7:53 PM 3.0 °F -14.8 °F -11.9 °F 50% 30.55 in 10.0 mi North 13.8 mph - N/A   Clear
8:53 PM 1.9 °F -17.5 °F -11.9 °F 52% 30.56 in 10.0 mi North 16.1 mph - N/A   Clear
9:53 PM 1.9 °F -18.1 °F -11.9 °F 52% 30.54 in 10.0 mi North 17.3 mph - N/A   Clear
10:53 PM 1.9 °F -15.5 °F -11.9 °F 52% 30.56 in 10.0 mi North 12.7 mph - N/A   Clear
11:53 PM 1.9 °F -18.7 °F -11.0 °F 55% 30.56 in 10.0 mi North 18.4 mph - N/A   Clear